Change the Weather History Date:

Monday, October 22, 2012

  Actual Average Record
Temperature  
Mean Temperature 64 °F -  
Max Temperature 68 °F 74 °F 83 °F (2014)
Min Temperature 59 °F 60 °F 51 °F (1996)
Degree Days  
Heating Degree Days 2    
Growing Degree Days 14 (Base 50)    
Moisture  
Dew Point 60 °F    
Average Humidity 87    
Maximum Humidity 94    
Minimum Humidity 73    
Precipitation  
Precipitation 0.43 in 0.14 in - ()
Sea Level Pressure  
Sea Level Pressure 29.50 in    
Wind  
Wind Speed 15 mph ()    
Max Wind Speed 30 mph    
Max Gust Speed 48 mph    
Visibility 4.8 miles    
Events Rain , Thunderstorm    
Averages and records for this station are not official NWS values.
T = Trace of Precipitation, MM = Missing Value Source: Averaged Metar Reports

Daily Weather History Graph

Daily Weather History Graph

Search for Another Location

Airport or City:

Trip Planner

Search our weather history database for the weather conditions in past years. The results will help you decide how hot, cold, wet, or windy it might be!

Date:

Astronomy

Oct. 22, 2012 Rise Set
Actual Time 6:02 AM ART 7:14 PM ART
Civil Twilight 5:36 AM ART 7:40 PM ART
Nautical Twilight 5:05 AM ART 8:11 PM ART
Astronomical Twilight 4:32 AM ART 8:43 PM ART
Moon 12:37 PM ART (10/22) 1:37 AM ART (10/22)
Length of Visible Light 14h 04m
Length of Day
13h 11m
First Quarter, 55% of the Moon is Illuminated
Oct 22
First Quarter
Oct 29
Full
Nov 6
Last Quarter
Nov 13
New
Nov 20
First Quarter

Hourly Weather History & Observations

Time (ART) Temp. Dew Point Humidity Pressure Visibility Wind Dir Wind Speed Gust Speed Precip Events Conditions
12:00 AM 60.8 °F 57.2 °F 88% 29.74 in 2.8 mi SE 13.8 mph - N/A Rain , Thunderstorm Heavy Thunderstorms and Rain
12:28 AM 60.8 °F 57.2 °F 88% 29.68 in 3.1 mi ESE 17.3 mph 28.8 mph N/A Rain Rain
12:49 AM 60.8 °F 57.2 °F 88% 29.59 in 3.1 mi ESE 29.9 mph 48.3 mph N/A Rain Rain
1:00 AM 62.6 °F 59.0 °F 88% 29.62 in 3.1 mi ESE 29.9 mph 48.3 mph N/A Rain , Thunderstorm Light Thunderstorms and Rain
1:05 AM 62.6 °F 59.0 °F 88% 29.65 in 3.1 mi ESE 23.0 mph 36.8 mph N/A Rain , Thunderstorm Light Thunderstorms and Rain
2:00 AM 62.6 °F 60.8 °F 94% 29.62 in 5.6 mi ESE 26.5 mph 38.0 mph N/A Rain , Thunderstorm Light Thunderstorms and Rain
3:00 AM 64 °F 61 °F 87% 29.61 in 5 mi East 18.4 mph - - Rain Light Rain
3:00 AM 64.4 °F 60.8 °F 88% 29.59 in 5.0 mi East 18.4 mph 36.8 mph N/A Rain Light Rain
4:00 AM 64.4 °F 62.6 °F 94% 29.56 in 5.0 mi ESE 21.9 mph 34.5 mph N/A Rain Light Rain
5:00 AM 64.4 °F 60.8 °F 88% 29.53 in 5.0 mi ESE 16.1 mph 27.6 mph N/A Rain Light Rain
6:00 AM 64.4 °F 62.6 °F 94% 29.59 in 3.7 mi East 4.6 mph - N/A Rain Light Rain
7:00 AM 62.6 °F 60.8 °F 94% 29.59 in 3.7 mi ENE 11.5 mph - N/A Rain Light Rain
8:00 AM 64.4 °F 60.8 °F 88% 29.47 in 6.2 mi East 17.3 mph 34.5 mph N/A   Mostly Cloudy
9:00 AM 64 °F 60 °F 82% 29.54 in 6 mi East 10.4 mph - -   Partly Cloudy
9:00 AM 64.4 °F 60.8 °F 88% 29.53 in 6.2 mi East 10.4 mph - N/A   Mostly Cloudy
10:00 AM 64.4 °F 60.8 °F 88% 29.50 in 6.2 mi ESE 9.2 mph - N/A   Mostly Cloudy
11:00 AM 66.2 °F 60.8 °F 83% 29.47 in 6.2 mi SSE 10.4 mph - N/A   Mostly Cloudy
11:20 AM 66.2 °F 60.8 °F 83% 29.47 in 3.7 mi South 9.2 mph - N/A   Light Drizzle
12:00 PM 64.4 °F 60.8 °F 88% 29.47 in 6.2 mi SW 10.4 mph - N/A   Mostly Cloudy
1:00 PM 64.4 °F 60.8 °F 88% 29.44 in 3.7 mi SSW 10.4 mph - N/A   Light Drizzle
2:00 PM 66.2 °F 60.8 °F 83% 29.39 in 6.2 mi WSW 11.5 mph - N/A   Scattered Clouds
2:30 PM 64.4 °F 60.8 °F 88% 29.36 in 3.1 mi SSW 13.8 mph - N/A   Light Drizzle
3:00 PM 68.0 °F 60.8 °F 78% 29.42 in 6.2 mi WSW 13.8 mph - N/A   Scattered Clouds
4:00 PM 68.0 °F 59.0 °F 73% 29.42 in 6.2 mi SW 13.8 mph - N/A   Mostly Cloudy
4:38 PM 68.0 °F 59.0 °F 73% 29.42 in 5.6 mi SSW 15.0 mph - N/A Rain Light Rain
5:00 PM 64.4 °F 60.8 °F 88% 29.39 in 6.2 mi WSW 15.0 mph - N/A   Scattered Clouds
6:00 PM 65 °F 61 °F 81% 29.40 in 4 mi SW 12.7 mph - - Rain Light Drizzle
6:00 PM 64.4 °F 60.8 °F 88% 29.39 in 4.3 mi SW 12.7 mph - N/A   Light Drizzle
7:00 PM 62.6 °F 59.0 °F 88% 29.39 in 6.2 mi South 19.6 mph - N/A   Scattered Clouds
8:00 PM 62.6 °F 57.2 °F 82% 29.42 in 6.2 mi South 17.3 mph - N/A   Scattered Clouds
9:00 PM 60.8 °F 55.4 °F 82% 29.42 in 6.2 mi SSE 21.9 mph 33.4 mph N/A   Scattered Clouds
10:00 PM 59.0 °F 57.2 °F 94% 29.44 in 3.1 mi SW 6.9 mph - N/A Rain Rain
11:00 PM 59.0 °F 57.2 °F 94% 29.44 in 3.1 mi ESE 6.9 mph - N/A Rain Rain